EW6434 Weather Reports


Display with metric or nautical units.
time (UTC)temp
F
wind
direction
speed
MPH
gust
MPH
rain 1hr
in
rain 24hr
in
rain mn
in
humidity
%
barometer
mb
20240525224523 53 55 0.0 10.0 0.00 0.00 0.00 29 1003.2
20240525223013 53 217 2.0 12.0 0.00 0.00 0.00 30 1003.2
20240525221512 53 251 4.0 11.0 0.00 0.00 0.00 31 1003.2
20240525220012 53 351 4.0 17.0 0.00 0.00 0.00 32 1003.3
20240525214511 53 54 5.0 15.0 0.00 0.00 0.00 33 1003.5
20240525213009 54 118 2.0 9.0 0.00 0.00 0.00 32 1003.4
20240525211508 53 253 3.0 11.0 0.00 0.00 0.00 33 1003.7
20240525210007 51 13 3.0 11.0 0.00 0.00 0.00 38 1004.0
20240525204507 51 56 1.0 14.0 0.00 0.00 0.00 37 1003.9
20240525203013 52 68 2.0 10.0 0.00 0.00 0.00 36 1003.9
20240525201506 53 69 2.0 15.0 0.00 0.00 0.00 35 1003.6
20240525200003 52 77 2.0 10.0 0.00 0.00 0.00 38 1004.0
20240525194507 52 240 6.0 17.0 0.00 0.00 0.00 38 1004.3
20240525193101 53 68 1.0 9.0 0.00 0.00 0.00 37 1003.9
20240525191559 52 341 2.0 9.0 0.00 0.00 0.00 39 1004.3
20240525190057 48 44 2.0 13.0 0.00 0.00 0.00 44 1005.2
20240525184557 47 91 1.0 7.0 0.00 0.00 0.00 51 1004.9
20240525183056 48 257 6.0 16.0 0.00 0.00 0.00 43 1005.5
20240525181555 51 54 4.0 13.0 0.00 0.00 0.00 37 1004.5
20240525180055 51 70 5.0 13.0 0.00 0.00 0.00 36 1004.5
20240525174557 51 57 5.0 16.0 0.00 0.00 0.00 37 1004.6
20240525173050 49 46 6.0 10.0 0.00 0.00 0.00 41 1004.2
20240525171551 47 252 1.0 16.0 0.00 0.00 0.00 44 1004.7
20240525170050 49 98 3.0 13.0 0.00 0.00 0.00 39 1004.3
20240525164549 49 84 3.0 12.0 0.00 0.00 0.00 41 1004.1
20240525163048 49 76 3.0 10.0 0.00 0.00 0.00 41 1004.4
20240525161546 49 49 3.0 20.0 0.00 0.00 0.00 40 1004.5
20240525160052 49 175 6.0 15.0 0.00 0.00 0.00 40 1004.7
20240525154545 48 56 2.0 6.0 0.00 0.00 0.00 41 1005.0
20240525153049 48 115 3.0 12.0 0.00 0.00 0.00 41 1004.9
20240525151537 47 45 4.0 10.0 0.00 0.00 0.00 42 1005.2
20240525150036 46 60 4.0 11.0 0.00 0.00 0.00 44 1005.2
20240525144533 46 44 2.0 12.0 0.00 0.00 0.00 45 1005.4
20240525143032 45 125 2.0 9.0 0.00 0.00 0.00 45 1005.4
20240525141530 42 58 0.0 4.0 0.00 0.00 0.00 52 1005.6
20240525140033 39 67 1.0 5.0 0.00 0.00 0.00 58 1005.6
20240525134530 37 207 0.0 0.0 0.00 0.00 0.00 68 1005.6
20240525133028 36 239 0.0 0.0 0.00 0.00 0.00 69 1005.7
20240525131527 35 243 0.0 0.0 0.00 0.00 0.00 70 1005.8
20240525130027 35 49 0.0 0.0 0.00 0.00 0.00 70 1005.6
20240525124526 34 49 0.0 0.0 0.00 0.00 0.00 68 1005.5
20240525123025 34 49 0.0 0.0 0.00 0.00 0.00 68 1005.5
20240525121525 34 49 0.0 0.0 0.00 0.00 0.00 67 1005.5
20240525120023 34 49 0.0 0.0 0.00 0.00 0.00 65 1005.5
20240525114521 35 252 0.0 0.0 0.00 0.00 0.00 64 1005.7
20240525113023 36 252 0.0 0.0 0.00 0.00 0.00 63 1005.6
20240525111517 36 252 0.0 0.0 0.00 0.00 0.00 61 1005.9
20240525110016 36 252 0.0 0.0 0.00 0.00 0.00 62 1006.0
20240525104514 37 58 0.0 0.0 0.00 0.00 0.00 60 1006.0
20240525103011 37 58 0.0 0.0 0.00 0.00 0.00 58 1005.7
20240525101509 38 58 0.0 0.0 0.00 0.00 0.00 58 1005.8
20240525100014 38 57 0.0 0.0 0.00 0.00 0.00 57 1006.1
20240525094513 38 58 0.0 0.0 0.00 0.00 0.00 57 1005.8
20240525093009 38 56 0.0 0.0 0.00 0.00 0.00 55 1005.7
20240525091505 39 56 0.0 0.0 0.00 0.00 0.00 54 1005.6
20240525090002 40 68 0.0 0.0 0.00 0.00 0.00 52 1005.7
20240525084558 41 230 0.0 0.0 0.00 0.00 0.00 50 1005.4
20240525083055 42 76 0.0 0.0 0.00 0.00 0.00 47 1005.6
20240525081554 43 66 0.0 1.0 0.00 0.00 0.00 47 1005.6
20240525080052 44 245 0.0 1.0 0.00 0.00 0.00 46 1005.7
20240525074605 42 141 0.0 1.0 0.00 0.00 0.00 49 1005.9
20240525073055 43 37 0.0 0.0 0.00 0.00 0.00 47 1005.9
20240525071552 44 238 0.0 1.0 0.00 0.00 0.00 48 1005.8
20240525070052 45 266 0.0 3.0 0.00 0.00 0.00 44 1005.9
20240525064548 45 30 0.0 1.0 0.00 0.00 0.00 47 1006.1
20240525063047 44 250 0.0 2.0 0.00 0.00 0.00 50 1006.1
20240525061547 43 25 0.0 0.0 0.00 0.00 0.00 50 1006.1
20240525060042 42 142 0.0 0.0 0.00 0.00 0.00 51 1006.1
20240525054541 42 89 0.0 0.0 0.00 0.00 0.00 53 1006.2
20240525053053 42 90 0.0 0.0 0.00 0.00 0.00 54 1006.3
20240525051539 42 161 0.0 0.0 0.00 0.00 0.00 54 1006.4
20240525050040 43 162 0.0 0.0 0.00 0.00 0.00 52 1006.4
20240525044539 43 162 0.0 0.0 0.00 0.00 0.00 52 1006.5
20240525043038 44 160 0.0 0.0 0.00 0.00 0.00 50 1006.4
20240525041543 45 160 0.0 0.0 0.00 0.00 0.00 46 1006.5
20240525040038 46 160 0.0 0.0 0.00 0.00 0.00 45 1006.5
20240525034542 46 160 0.0 0.0 0.00 0.00 0.00 44 1006.5
20240525033040 47 160 0.0 0.0 0.00 0.00 0.00 41 1006.5
20240525031534 48 160 0.0 0.0 0.00 0.00 0.00 39 1006.4
20240525030039 49 160 0.0 0.0 0.00 0.00 0.00 37 1006.3
20240525024533 51 160 0.0 0.0 0.00 0.00 0.00 32 1006.3
20240525023032 51 63 0.0 2.0 0.00 0.00 0.00 32 1006.2
20240525021533 53 158 1.0 4.0 0.00 0.00 0.00 28 1006.2
20240525020031 54 56 0.0 3.0 0.00 0.00 0.00 27 1006.2
20240525014534 55 122 1.0 4.0 0.00 0.00 0.00 27 1006.4
20240525013049 55 240 0.0 3.0 0.00 0.00 0.00 26 1006.4
20240525011530 56 242 0.0 6.0 0.00 0.00 0.00 26 1006.5
20240525010037 57 275 3.0 12.0 0.00 0.00 0.00 25 1006.5
20240525004533 58 97 2.0 5.0 0.00 0.00 0.00 24 1006.5
20240525003027 56 233 2.0 7.0 0.00 0.00 0.00 26 1006.4
20240525001532 57 235 2.0 6.0 0.00 0.00 0.00 26 1006.7
20240525000031 57 240 1.0 4.0 0.00 0.00 0.00 25 1006.9
20240524234524 57 91 3.0 7.0 0.00 0.00 0.00 25 1007.1
20240524233023 57 274 6.0 11.0 0.00 0.00 0.00 26 1007.1
20240524231524 56 59 4.0 9.0 0.00 0.00 0.00 26 1007.2
20240524230023 56 105 1.0 5.0 0.00 0.00 0.00 26 1007.1